This demonstration page uses our WeatherBlox Daily Observations layout. Learn more.

Left ArrowRight Arrow

Hourly Observations for December 13, 2019

Temp ( °F °C ) Dew Point ( °F °C ) Humidity (%) Winds ( mph kmh ) Pressure ( in mb ) Visibility ( mi km ) Precip ( " mm )
12:52 am 00:52 Cloudy with Mist and Fog 22 -5.6 20 -6.7 92 92 E 7 11 30.03 1017 5 8 0.00 0.00
1:52 am 01:52 Cloudy with Mist and Fog 22 -5.6 20 -6.7 92 92 ESE 6 9 30.01 1016 5 8 0.00 0.00
2:52 am 02:52 Cloudy with Mist and Fog 22 -5.6 20 -6.7 92 92 E 5 7 30.00 1016 4 6 0.00 0.00
3:33 am 03:33 Cloudy with Mist and Fog 22 -5.6 20 -6.7 92 92 ESE 7 11 30.03 1017 3 5 0.00 0.00
3:52 am 03:52 Cloudy with Mist and Fog 21 -6.1 20 -6.7 96 96 ESE 6 9 29.97 1015 3 5 0.00 0.00
4:49 am 04:49 Cloudy with Mist and Fog 21 -6 19 -7 93 93 SE 7 11 30.00 1016 3 4 0.00 0.00
4:52 am 04:52 Cloudy with Mist and Fog 22 -5.6 20 -6.7 92 92 ESE 9 15 29.95 1014 3 4 0.00 0.00
5:52 am 05:52 Cloudy with Mist and Fog 22 -5.6 21 -6.1 96 96 SE 7 11 29.93 1013 3 5 0.00 0.00
6:20 am 06:20 Cloudy with Mist and Fog 23 -5 21 -6.1 92 92 NNW 5 7 30.00 1016 3 5 0.00 0.00
6:52 am 06:52 Cloudy with Mist and Fog 23 -5 21 -6.1 92 92 VRB 6 9 29.96 1015 3 5 0.00 0.00
7:17 am 07:17 Cloudy with Light Freezing Drizzle 23 -5 21 -6.1 92 92 ENE 7 11 29.98 1015 3 5 0.00 0.00
7:24 am 07:24 Cloudy with Mist and Fog 23 -5 22 -5.6 96 96 ENE 5 7 29.98 1015 3 5 0.00 0.00
7:41 am 07:41 Cloudy with Light Freezing Drizzle 24 -4.4 22 -5.6 91 91 E 5 7 29.98 1015 4 6 0.00 0.00
7:52 am 07:52 Cloudy with Light Freezing Drizzle 24 -4.4 22 -5.6 91 91 ESE 6 9 29.94 1014 4 6 0.00 0.00
8:10 am 08:10 Cloudy with Light Freezing Drizzle 24 -4.4 22 -5.6 91 91 SE 5 7 29.98 1015 4 6 0.00 0.00
8:52 am 08:52 Cloudy with Light Freezing Rain 26 -3.3 23 -5 88 88 SE 9 15 29.93 1013 4 6 0.00 0.00
9:20 am 09:20 Cloudy with Light Freezing Drizzle 26 -3.3 24 -4.4 92 92 SSE 12 19 29.95 1014 4 6 0.01 0.25
9:52 am 09:52 Mostly Cloudy with Mist and Fog 27 -2.8 24 -4.4 89 89 S 8 13 29.91 1013 4 6 0.01 0.25
10:06 am 10:06 Mostly Cloudy with Mist and Fog 28 -2.2 25 -3.9 88 88 W 6 9 29.95 1014 5 8 0.00 0.00
10:52 am 10:52 Partly Cloudy with Mist and Fog 29 -1.7 26 -3.3 89 89 SSE 3 6 29.90 1013 5 8 0.00 0.00
11:24 am 11:24 Cloudy with Mist and Fog 30 -1.1 26 -3.3 85 85 NNW 7 11 29.94 1014 4 6 0.00 0.00
11:52 am 11:52 Mostly Cloudy with Mist and Fog 31 -0.6 27 -2.8 85 85 ENE 5 7 29.89 1012 5 8 0.00 0.00
12:04 pm 12:04 Partly Cloudy with Mist and Fog 32 0 28 -2.2 85 85 Calm 29.89 1012 4 6 0.00 0.00
12:52 pm 12:52 Hazy 34 1.1 29 -1.7 82 82 Calm 29.85 1011 4 6 0.00 0.00
1:52 pm 13:52 Mostly Cloudy with Haze 35 1.7 30 -1.1 82 82 NNE 5 7 29.83 1010 4 6 0.00 0.00
2:52 pm 14:52 Mostly Cloudy with Haze 37 2.8 30 -1.1 76 76 Calm 29.82 1010 5 8 0.00 0.00
3:52 pm 15:52 Mostly Cloudy with Haze 34 1.1 29 -1.7 82 82 N 7 11 29.84 1011 5 8 0.00 0.00
4:52 pm 16:52 Cloudy with Mist and Fog 32 0 28 -2.2 85 85 N 10 17 29.86 1011 5 8 0.00 0.00
5:52 pm 17:52 Cloudy with Mist and Fog 30 -1.1 27 -2.8 88 88 N 13 20 29.87 1012 5 8 0.00 0.00
6:17 pm 18:17 Cloudy with Mist and Fog 30 -1.1 27 -2.8 88 88 N 12 19 29.91 1013 3 5 0.00 0.00
6:35 pm 18:35 Cloudy with Mist and Fog 30 -1.1 28 -2.2 92 92 NNW 8 13 29.92 1013 3 5 0.00 0.00
6:52 pm 18:52 Cloudy with Mist and Fog 30 -1.1 28 -2.2 92 92 NNW 14 22 29.89 1012 3 5 0.00 0.00
7:52 pm 19:52 Cloudy with Mist and Fog 30 -1.1 28 -2.2 92 92 N 17 28 29.91 1013 3 5 0.00 0.00
8:35 pm 20:35 Cloudy with Mist and Fog 30 -1.1 28 -2.2 92 92 N 21 33 29.94 1014 3 4 0.00 0.00
8:52 pm 20:52 Cloudy with Mist and Fog 31 -0.6 28 -2.2 89 89 N 17 28 29.91 1013 3 4 0.00 0.00
9:42 pm 21:42 Cloudy with Mist and Fog 31 -0.6 29 -1.7 92 92 NNW 20 31 29.94 1014 4 6 0.00 0.00
9:52 pm 21:52 Cloudy with Mist and Fog 31 -0.6 29 -1.7 92 92 N 21 33 29.93 1013 4 6 0.00 0.00
10:30 pm 22:30 Cloudy 31 -0.6 27 -2.8 85 85 NNW 21 33 29.95 1014 10 16 0.00 0.00
10:52 pm 22:52 Cloudy 31 -0.6 27 -2.8 85 85 N 20 31 29.94 1014 10 16 0.00 0.00
11:52 pm 23:52 Cloudy 31 -0.6 27 -2.8 85 85 N 14 22 29.94 1014 10 16 0.00 0.00

Powered by AerisWeather